| 
				
				
				
					
						
					 | 
				
				
				
					
					
					Asteroid 2012 FJ15
					
					
					
					
						
					
					
						
							(Preview)
						
						
						
						
							
						
							
								Orbital elements:
2012 FJ15                                                Earth MOID = 0.0214 AU
Epoch 2012 Mar. 14.0 TT = JDT 2456000.5                 MPC
M  12.51674              (2000.0)            P               Q
n   0.26308708     Peri.  344.21561     -0.04104515     -0.99884558
a   2.4121429      Node   108.13165     +0.91952687     -0.04753340
e   0.7037817      Incl.    1.50476     +0.39087803     +0.00693431
P   3.75           H   22.7           G... 
							 
							
						 
						
					
				 | 
				
					
						Blobrana
					 | 
				
				
					
						0
					 | 
				
				
				
					
						
					 | 
				
				
					
						
					 | 
				
			
		
			
			
				
				
					
						 
					 | 
				
				
				
					
						
					 | 
				
				
				
					
					
					Asteroid 2012 FZ13
					
					
					
					
						
					
					
						
							(Preview)
						
						
						
						
							
						
							
								Orbital elements:
2012 FZ13                                                Earth MOID = 0.0655 AU
Epoch 2012 Mar. 14.0 TT = JDT 2456000.5                 MPC
M  76.51544              (2000.0)            P               Q
n   0.93171634     Peri.  228.61036     +0.65097503     -0.75909406
a   1.0381981      Node   180.79050     +0.74262880     +0.63760482
e   0.4447058      Incl.   11.61974     +0.15727041     +0.13128710
P   1.06           H   24.2... 
							 
							
						 
						
					
				 | 
				
					
						Blobrana
					 | 
				
				
					
						0
					 | 
				
				
				
					
						
					 | 
				
				
					
						
					 | 
				
			
		
			
			
				
				
					
						 
					 | 
				
				
				
					
						
					 | 
				
				
				
					
					
					Asteroid 2012 FX13
					
					
					
					
						
					
					
						
							(Preview)
						
						
						
						
							
						
							
								Orbital elements:
2012 FX13                                                Earth MOID = 0.0500 AU
Epoch 2012 Mar. 14.0 TT = JDT 2456000.5                 MPC
M 107.49289              (2000.0)            P               Q
n   0.92485906     Peri.   55.20383     +0.60165172     -0.79868134
a   1.0433236      Node   357.71489     +0.61118500     +0.46927158
e   0.1346193      Incl.   16.17160     +0.51426462     +0.37668594
P   1.07           H   25.2... 
							 
							
						 
						
					
				 | 
				
					
						Blobrana
					 | 
				
				
					
						0
					 | 
				
				
				
					
						
					 | 
				
				
					
						
					 | 
				
			
		
			
			
				
				
					
						 
					 | 
				
				
				
					
						
					 | 
				
				
				
					
					
					Asteroid 2012 FB14
					
					
					
					
						
					
					
						
							(Preview)
						
						
						
						
							
						
							
								Orbital elements:
2012 FB14                                                Earth MOID = 0.0453 AU
Epoch 2012 Mar. 14.0 TT = JDT 2456000.5                 MPC
M 359.35917              (2000.0)            P               Q
n   0.33399736     Peri.  354.43589     -0.99625069     -0.08650097
a   2.0573461      Node   180.60759     +0.08374614     -0.95999662
e   0.4944438      Incl.    7.94230     +0.02170597     -0.26631575
P   2.95           H   27.0...                                    
							 
							
						 
						
					
				 | 
				
					
						Blobrana
					 | 
				
				
					
						0
					 | 
				
				
				
					
						
					 | 
				
				
					
						
					 | 
				
			
		
			
			
				
				
					
						 
					 | 
				
				
				
					
						 
					 | 
				
				
				
					
					
					Asteroid 2007 DS84
					
					
					
					
						
					
					
						
							(Preview)
						
						
						
						
							
						
							
								Orbital elements:
2007 DS84                                           PHA, Earth MOID = 0.0297 AU
Epoch 2012 Mar. 14.0 TT = JDT 2456000.5                 MPC
M 334.32430              (2000.0)            P               Q
n   0.38664778     Peri.  172.78889     -0.91665848     +0.39178302
a   1.8660604      Node    30.65766     -0.37399407     -0.77111776
e   0.4467500      Incl.    8.91439     -0.14094559     -0.50187993
P   2.55           H   2... 
							 
							
						 
						
					
				 | 
				
					
						Blobrana
					 | 
				
				
					
						0
					 | 
				
				
				
					
						
					 | 
				
				
					
						
					 | 
				
			
		
			
			
				
				
					
						 
					 | 
				
				
				
					
						 
					 | 
				
				
				
					
					
					Asteroid 2012 FQ1
					
					
					
					
						
					
					
						
							(Preview)
						
						
						
						
							
						
							
								Orbital elements:
2012 FQ1                                            PHA, Earth MOID = 0.0216 AU
Epoch 2012 Mar. 14.0 TT = JDT 2456000.5                 MPC
M 325.29987              (2000.0)            P               Q
n   0.23730371     Peri.  169.69217     -0.00866169     +0.99575367
a   2.5838445      Node    99.76776     -0.92393988     +0.02708350
e   0.6214084      Incl.    5.33608     -0.38243963     -0.08798364
P   4.15           H   19... 
							 
							
						 
						
					
				 | 
				
					
						Blobrana
					 | 
				
				
					
						0
					 | 
				
				
				
					
						
					 | 
				
				
					
						
					 | 
				
			
		
			
			
				
				
					
						 
					 | 
				
				
				
					
						
					 | 
				
				
				
					
					
					Asteroid 2010 RE64
					
					
					
					
						
					
					
						
							(Preview)
						
						
						
						
							
						
							
								Orbital elements:
2010 RE64
Epoch 2012 Mar. 14.0 TT = JDT 2456000.5                 MPC
M 312.97802              (2000.0)            P               Q
n   0.00193420     Peri.   20.40818     +0.04436245     -0.97533899
a  63.7971800      Node    67.56194     +0.88107251     -0.06381441
e   0.4159312      Incl.   13.52780     +0.47089617     +0.21128553
P 510              H    4.3           G   0.15           U   6 MPEC 2012 - F41 
							 
							
						 
						
					
				 | 
				
					
						Blobrana
					 | 
				
				
					
						0
					 | 
				
				
				
					
						
					 | 
				
				
					
						
					 | 
				
			
		
			
			
				
				
					
						 
					 | 
				
				
				
					
						 
					 | 
				
				
				
					
					
					Asteroid 2012 FN
					
					
					
					
						
					
					
						
							(Preview)
						
						
						
						
							
						
							
								Orbital elements:
2012 FN                                                  Earth MOID = 0.0156 AU
Epoch 2012 Mar. 14.0 TT = JDT 2456000.5                 MPC
M  19.60032              (2000.0)            P               Q
n   0.73010934     Peri.  147.81582     -0.81644655     -0.57741302
a   1.2214549      Node   356.91029     +0.51711244     -0.72882145
e   0.1871915      Incl.    3.23172     +0.25692364     -0.36798573
P   1.35           H   29.2           G   0.... 
							 
							
						 
						
					
				 | 
				
					
						Blobrana
					 | 
				
				
					
						0
					 | 
				
				
				
					
						
					 | 
				
				
					
						
					 | 
				
			
		
			
			
				
				
					
						 
					 | 
				
				
				
					
						
					 | 
				
				
				
					
					
					Asteroid 2012 DO8
					
					
					
					
						
					
					
						
							(Preview)
						
						
						
						
							
						
							
								Orbital elements:
2012 DO8                                                 Earth MOID = 0.1293 AU
Epoch 2012 Mar. 14.0 TT = JDT 2456000.5                 MPC
M 191.21624              (2000.0)            P               Q
n   1.05420257     Peri.  359.53929     +0.97487138     +0.22046393
a   0.9561367      Node   347.58408     -0.20390769     +0.82532876
e   0.2320402      Incl.    8.54852     -0.08970755     +0.51983467
P   0.93           H   22.1           G...                        
							 
							
						 
						
					
				 | 
				
					
						Blobrana
					 | 
				
				
					
						1
					 | 
				
				
				
					
						
					 | 
				
				
					
						
					 | 
				
			
		
			
			
				
				
					
						 
					 | 
				
				
				
					
						
					 | 
				
				
				
					
					
					Asteroid 2012 EO8
					
					
					
					
						
					
					
						
							(Preview)
						
						
						
						
							
						
							
								Orbital elements:
2012 EO8                                                 Earth MOID = 0.0036 AU
Epoch 2012 Mar. 14.0 TT = JDT 2456000.5                 MPC
M 346.25389              (2000.0)            P               Q
n   0.34087741     Peri.   45.90655     -0.70697540     +0.70723415
a   2.0295694      Node   179.09365     -0.68420232     -0.68309366
e   0.5593873      Incl.    8.64058     -0.17903345     -0.18221666
P   2.89           H   24.3           G   0...                      
							 
							
						 
						
					
				 | 
				
					
						Blobrana
					 | 
				
				
					
						1
					 | 
				
				
				
					
						
					 | 
				
				
					
						
					 | 
				
			
		
			
			
				
				
					
						 
					 | 
				
				
				
					
						
					 | 
				
				
				
					
					
					Asteroid 2012 FC1
					
					
					
					
						
					
					
						
							(Preview)
						
						
						
						
							
						
							
								Orbital elements:
2012 FC1                                                 Earth MOID = 0.1105 AU
Epoch 2012 Mar. 14.0 TT = JDT 2456000.5                 MPC
M 354.11833              (2000.0)            P               Q
n   0.22465517     Peri.   23.33426     -0.93286305     +0.36018884
a   2.6799402      Node   177.75545     -0.34873314     -0.89913674
e   0.5897473      Incl.    8.11041     -0.09028691     -0.24863051
P   4.39           H   24.7           G   0...                      
							 
							
						 
						
					
				 | 
				
					
						Blobrana
					 | 
				
				
					
